Location: Lalanga
(4.5882°N, 32.9072°E)
Time: 02:23:41
(UTC+00:00)

NOSS 3-2 (C) - Pass Details

Date: 24 January 2020
Orbit: 813 x 1399 km, 63.4° (Epoch: 10 February)

Event Time Altitude Azimuth Distance (km) Brightness Sun altitude
Rises 16:27:27 0° 194° (SSW) 3,379 6.8 -7.9°
Reaches altitude 10° 16:29:58 10° 189° (S) 2,415 6.0 -8.5°
Maximum altitude 16:35:17 53° 113° (ESE) 986 3.3 -9.7°
Drops below altitude 10° 16:40:39 10° 36° (NE) 2,438 5.1 -11.0°
Enters shadow 16:41:13 - 35° (NE) 2,652 5.3 -11.1°
